When you browse on this site, cookies collect data to enhance your experience and personalize the content and advertising you see.
Visit our Privacy Policy to learn more. By continuing to use the site, you agree to this use of cookies and data.
  • In Hungary
  • List of Countries
  • For 7 days
  • Water Temperature
  • Weather Map
  • News
  • Weather Widgets
  • user-avatar
    Login

    Hourly Weather Sesheke

    Today, 6 December, Friday

    Time Temperature Precipitation Wind Pressure Humidity
    00:00 +22°C° 0.1 mm 1 mps 671 mmHg 83%
    01:00 +22°C° 0.1 mm 1 mps 671 mmHg 84%
    02:00 +22°C° 0 mm 1 mps 671 mmHg 85%
    03:00 +21°C° 0.8 mm 1 mps 671 mmHg 86%
    04:00 +21°C° 0.8 mm 1 mps 671 mmHg 87%
    05:00 +20°C° 0.8 mm 2 mps 670 mmHg 88%
    06:00 +21°C° 0 mm 3 mps 671 mmHg 83%
    07:00 +23°C° 0 mm 4 mps 672 mmHg 77%
    08:00 +25°C° 0 mm 4 mps 672 mmHg 71%
    09:00 +27°C° 0 mm 5 mps 672 mmHg 62%
    10:00 +29°C° 0 mm 5 mps 672 mmHg 54%
    11:00 +32°C° 0 mm 5 mps 672 mmHg 45%
    12:00 +33°C° 0 mm 4 mps 672 mmHg 43%
    13:00 +33°C° 0 mm 4 mps 671 mmHg 41%
    14:00 +34°C° 0 mm 3 mps 670 mmHg 39%
    15:00 +33°C° 0 mm 3 mps 670 mmHg 44%
    16:00 +30°C° 0 mm 3 mps 669 mmHg 48%
    17:00 +29°C° 0 mm 2 mps 669 mmHg 52%
    18:00 +28°C° 0.6 mm 2 mps 669 mmHg 60%
    19:00 +26°C° 0.6 mm 2 mps 669 mmHg 68%
    20:00 +24°C° 0.6 mm 1 mps 669 mmHg 76%
    21:00 +24°C° 0.6 mm 1 mps 669 mmHg 79%
    22:00 +23°C° 0.6 mm 1 mps 670 mmHg 81%
    23:00 +23°C° 0.6 mm 1 mps 670 mmHg 84%

    Tomorrow, 7 December, Saturday

    Time Temperature Precipitation Wind Pressure Humidity
    00:00 +23°C° 0.1 mm 1 mps 669 mmHg 84%
    01:00 +22°C° 0.1 mm 1 mps 669 mmHg 85%
    02:00 +22°C° 0.1 mm 1 mps 669 mmHg 86%
    03:00 +21°C° 0 mm 2 mps 669 mmHg 87%
    04:00 +20°C° 0 mm 2 mps 669 mmHg 89%
    05:00 +20°C° 0 mm 2 mps 668 mmHg 90%
    06:00 +23°C° 0 mm 2 mps 669 mmHg 84%
    07:00 +24°C° 0 mm 2 mps 670 mmHg 78%
    08:00 +26°C° 0 mm 3 mps 671 mmHg 72%
    09:00 +28°C° 0.7 mm 3 mps 670 mmHg 65%
    10:00 +30°C° 0.7 mm 3 mps 670 mmHg 57%
    11:00 +33°C° 0.7 mm 3 mps 670 mmHg 49%
    12:00 +33°C° 0.4 mm 3 mps 670 mmHg 49%
    13:00 +31°C° 0.4 mm 2 mps 669 mmHg 49%
    14:00 +31°C° 0.4 mm 2 mps 668 mmHg 49%
    15:00 +30°C° 0.7 mm 2 mps 668 mmHg 53%
    16:00 +30°C° 0.7 mm 2 mps 667 mmHg 57%
    17:00 +29°C° 0.7 mm 2 mps 667 mmHg 61%
    18:00 +27°C° 1.6 mm 2 mps 667 mmHg 69%
    19:00 +25°C° 1.6 mm 2 mps 667 mmHg 76%
    20:00 +23°C° 1.6 mm 2 mps 667 mmHg 84%
    21:00 +23°C° 1 mm 2 mps 667 mmHg 84%
    22:00 +23°C° 1 mm 2 mps 668 mmHg 84%
    23:00 +21°C° 1 mm 2 mps 668 mmHg 83%

    Day after tomorrow, 8 December, Sunday

    Time Temperature Precipitation Wind Pressure Humidity
    00:00 +21°C° 0.7 mm 2 mps 668 mmHg 83%
    01:00 +21°C° 0.7 mm 2 mps 667 mmHg 83%
    02:00 +21°C° 0.7 mm 2 mps 667 mmHg 83%
    03:00 +22°C° 0.5 mm 1 mps 667 mmHg 86%
    04:00 +22°C° 0.5 mm 1 mps 667 mmHg 88%
    05:00 +22°C° 0.5 mm 1 mps 668 mmHg 91%
    06:00 +23°C° 0.5 mm 2 mps 668 mmHg 87%
    07:00 +24°C° 0.5 mm 2 mps 669 mmHg 83%
    08:00 +25°C° 0.5 mm 2 mps 669 mmHg 79%
    09:00 +26°C° 1.8 mm 3 mps 669 mmHg 76%
    10:00 +27°C° 1.8 mm 3 mps 669 mmHg 74%
    11:00 +27°C° 1.8 mm 4 mps 669 mmHg 71%
    12:00 +27°C° 1.7 mm 3 mps 669 mmHg 70%
    13:00 +28°C° 1.7 mm 3 mps 668 mmHg 69%
    14:00 +28°C° 1.7 mm 2 mps 668 mmHg 68%
    15:00 +26°C° 1 mm 2 mps 667 mmHg 75%
    16:00 +25°C° 1 mm 2 mps 667 mmHg 81%
    17:00 +24°C° 1 mm 2 mps 667 mmHg 87%
    18:00 +23°C° 0.2 mm 2 mps 667 mmHg 89%
    19:00 +23°C° 0.2 mm 1 mps 667 mmHg 91%
    20:00 +22°C° 0.2 mm 1 mps 668 mmHg 92%
    21:00 +22°C° 0.2 mm 1 mps 668 mmHg 93%
    22:00 +22°C° 0.2 mm 1 mps 668 mmHg 93%
    23:00 +22°C° 0.2 mm 1 mps 668 mmHg 93%

    9 December, Monday

    Time Temperature Precipitation Wind Pressure Humidity
    00:00 +22°C° 0.8 mm 1 mps 668 mmHg 94%
    01:00 +20°C° 0.8 mm 2 mps 667 mmHg 94%
    02:00 +20°C° 0.8 mm 2 mps 667 mmHg 95%
    03:00 +20°C° 1.6 mm 2 mps 667 mmHg 95%
    04:00 +20°C° 1.6 mm 2 mps 667 mmHg 95%
    05:00 +20°C° 1.6 mm 2 mps 667 mmHg 95%
    06:00 +21°C° 0 mm 1 mps 668 mmHg 91%
    07:00 +22°C° 0 mm 1 mps 668 mmHg 88%
    08:00 +23°C° 0 mm 1 mps 669 mmHg 84%
    09:00 +24°C° 0 mm 1 mps 669 mmHg 76%
    10:00 +26°C° 0 mm 1 mps 669 mmHg 67%
    11:00 +28°C° 0 mm 1 mps 669 mmHg 58%
    12:00 +29°C° 0.6 mm 2 mps 669 mmHg 57%
    13:00 +29°C° 0.6 mm 2 mps 668 mmHg 57%
    14:00 +29°C° 0.6 mm 2 mps 668 mmHg 56%
    15:00 +29°C° 0.7 mm 2 mps 667 mmHg 56%
    16:00 +29°C° 0.7 mm 1 mps 667 mmHg 57%
    17:00 +29°C° 0.7 mm 1 mps 666 mmHg 57%
    18:00 +27°C° 0 mm 1 mps 667 mmHg 63%
    19:00 +26°C° 0 mm 1 mps 667 mmHg 69%
    20:00 +24°C° 0 mm 1 mps 667 mmHg 76%
    21:00 +24°C° 0 mm 1 mps 667 mmHg 76%
    22:00 +23°C° 0 mm 1 mps 668 mmHg 76%
    23:00 +23°C° 0 mm 1 mps 668 mmHg 77%

    10 December, Tuesday

    Time Temperature Precipitation Wind Pressure Humidity
    00:00 +22°C° 0.7 mm 1 mps 668 mmHg 82%
    01:00 +21°C° 0.7 mm 1 mps 667 mmHg 88%
    02:00 +21°C° 0.7 mm 1 mps 667 mmHg 93%
    03:00 +21°C° 0 mm 1 mps 667 mmHg 93%
    04:00 +20°C° 0 mm 1 mps 667 mmHg 93%
    05:00 +19°C° 0 mm 2 mps 667 mmHg 93%
    06:00 +21°C° 0 mm 2 mps 667 mmHg 87%
    07:00 +23°C° 0 mm 2 mps 668 mmHg 82%
    08:00 +25°C° 0 mm 2 mps 669 mmHg 77%
    09:00 +28°C° 0 mm 2 mps 669 mmHg 65%
    10:00 +31°C° 0 mm 2 mps 670 mmHg 53%
    11:00 +33°C° 0 mm 1 mps 670 mmHg 41%
    12:00 +33°C° 0 mm 1 mps 669 mmHg 41%
    13:00 +32°C° 0 mm 2 mps 669 mmHg 41%
    14:00 +32°C° 0 mm 2 mps 668 mmHg 41%
    15:00 +32°C° 0.1 mm 2 mps 668 mmHg 41%
    16:00 +32°C° 0.1 mm 2 mps 668 mmHg 40%
    17:00 +32°C° 0.1 mm 2 mps 668 mmHg 40%
    18:00 +29°C° 0.2 mm 1 mps 668 mmHg 50%
    19:00 +26°C° 0.2 mm 1 mps 668 mmHg 61%
    20:00 +22°C° 0.2 mm 0 mps 668 mmHg 71%
    21:00 +23°C° 0.1 mm 1 mps 668 mmHg 72%
    22:00 +23°C° 0.1 mm 1 mps 668 mmHg 74%
    23:00 +22°C° 0.1 mm 1 mps 669 mmHg 76%

    11 December, Wednesday

    Time Temperature Precipitation Wind Pressure Humidity
    00:00 +22°C° 0 mm 1 mps 668 mmHg 76%
    01:00 +22°C° 0 mm 1 mps 668 mmHg 76%
    02:00 +21°C° 0 mm 1 mps 668 mmHg 76%
    03:00 +21°C° 0 mm 1 mps 668 mmHg 76%
    04:00 +21°C° 0 mm 1 mps 668 mmHg 76%
    05:00 +20°C° 0 mm 2 mps 668 mmHg 76%
    06:00 +23°C° 0 mm 2 mps 668 mmHg 72%
    07:00 +24°C° 0 mm 2 mps 669 mmHg 68%
    08:00 +26°C° 0 mm 3 mps 670 mmHg 63%
    09:00 +28°C° 0 mm 3 mps 670 mmHg 54%
    10:00 +31°C° 0 mm 3 mps 671 mmHg 44%
    11:00 +34°C° 0 mm 3 mps 671 mmHg 34%
    12:00 +35°C° 0 mm 2 mps 671 mmHg 31%
    13:00 +35°C° 0 mm 2 mps 670 mmHg 28%
    14:00 +35°C° 0 mm 2 mps 669 mmHg 25%
    15:00 +35°C° 0 mm 2 mps 669 mmHg 27%
    16:00 +34°C° 0 mm 2 mps 669 mmHg 30%
    17:00 +32°C° 0 mm 2 mps 668 mmHg 32%
    18:00 +30°C° 0 mm 2 mps 668 mmHg 38%
    19:00 +28°C° 0 mm 1 mps 668 mmHg 44%
    20:00 +26°C° 0 mm 1 mps 668 mmHg 51%
    21:00 +25°C° 0 mm 1 mps 668 mmHg 52%
    22:00 +24°C° 0 mm 1 mps 669 mmHg 52%
    23:00 +24°C° 0 mm 1 mps 669 mmHg 53%
    Show more